Norman, OK

5:16 AM CST on November 19, 2017 (GMT -0600)
Univ. Of Oklahoma Westheimer

Weather History for KOUN - November, 2012

Change the Weather History Date:

Friday, November 23, 2012

  Actual Average Record
Temperature  
Mean Temperature 46 °F -  
Max Temperature 59 °F 61 °F 80 °F (2005)
Min Temperature 33 °F 42 °F 21 °F (2007)
Degree Days  
Heating Degree Days 19    
Moisture  
Dew Point 30 °F    
Average Humidity 54    
Maximum Humidity 76    
Minimum Humidity 41    
Precipitation  
Precipitation 0.00 in - - ()
Sea Level Pressure  
Sea Level Pressure 30.44 in    
Wind  
Wind Speed 16 mph (North)    
Max Wind Speed 23 mph    
Max Gust Speed 36 mph    
Visibility 10 miles    
Events      
Averages and records for this station are not official NWS values.
T = Trace of Precipitation, MM = Missing Value Source: NWS Daily Summary

Daily Weather History Graph

Daily Weather History Graph

Search for Another Location

Airport or City:

Trip Planner

Search our weather history database for the weather conditions in past years. The results will help you decide how hot, cold, wet, or windy it might be!

Date:

Astronomy

Nov. 23, 2012 Rise Set
Actual Time 7:13 AM CST 5:19 PM CST
Civil Twilight 6:45 AM CST 5:46 PM CST
Nautical Twilight 6:14 AM CST 6:18 PM CST
Astronomical Twilight 5:44 AM CST 6:48 PM CST
Moon 2:27 PM CST (11/23) 2:42 AM CST (11/23)
Length of Visible Light 11h 01m
Length of Day
10h 06m
Waxing Gibbous, 80% of the Moon is Illuminated
Nov 23
Waxing Gibbous
Nov 28
Full
Dec 6
Last Quarter
Dec 13
New
Dec 19
First Quarter

Hourly Weather History & Observations

Time (CST) Temp. Windchill Dew Point Humidity Pressure Visibility Wind Dir Wind Speed Gust Speed Precip Events Conditions
12:15 AM 59.0 °F - 41.0 °F 51% 30.24 in 10.0 mi NNE 21.9 mph 31.1 mph N/A   Overcast
12:35 AM 57.2 °F - 41.0 °F 55% 30.26 in 10.0 mi North 12.7 mph 27.6 mph N/A   Overcast
12:55 AM 57.2 °F - 37.4 °F 48% 30.27 in 10.0 mi North 21.9 mph 31.1 mph N/A   Overcast
1:15 AM 55.4 °F - 35.6 °F 47% 30.27 in 10.0 mi NNE 23.0 mph 34.5 mph N/A   Overcast
1:35 AM 55.4 °F - 33.8 °F 44% 30.28 in 10.0 mi North 18.4 mph 27.6 mph N/A   Overcast
1:55 AM 53.6 °F - 33.8 °F 47% 30.30 in 10.0 mi North 16.1 mph 28.8 mph N/A   Overcast
2:15 AM 53.6 °F - 33.8 °F 47% 30.31 in 10.0 mi North 23.0 mph 31.1 mph N/A   Overcast
2:35 AM 53.6 °F - 33.8 °F 47% 30.31 in 10.0 mi NNE 21.9 mph 35.7 mph N/A   Overcast
2:55 AM 53.6 °F - 33.8 °F 47% 30.33 in 10.0 mi NNE 19.6 mph 32.2 mph N/A   Mostly Cloudy
3:15 AM 51.8 °F - 33.8 °F 50% 30.34 in 10.0 mi NNE 18.4 mph 25.3 mph N/A   Scattered Clouds
3:35 AM 51.8 °F - 33.8 °F 50% 30.34 in 10.0 mi NNE 17.3 mph 24.2 mph N/A   Mostly Cloudy
3:55 AM 51.8 °F - 33.8 °F 50% 30.35 in 10.0 mi NNE 17.3 mph 24.2 mph N/A   Overcast
4:15 AM 50.0 °F - 33.8 °F 54% 30.36 in 10.0 mi NNE 15.0 mph 24.2 mph N/A   Mostly Cloudy
4:35 AM 50.0 °F - 33.8 °F 54% 30.37 in 10.0 mi NNE 15.0 mph 24.2 mph N/A   Scattered Clouds
4:55 AM 48.2 °F - 33.8 °F 58% 30.38 in 10.0 mi NNE 16.1 mph 20.7 mph N/A   Scattered Clouds
5:15 AM 46.4 °F 40.7 °F 35.6 °F 66% 30.38 in 10.0 mi NNE 12.7 mph - N/A   Scattered Clouds
5:35 AM 46.4 °F 40.7 °F 35.6 °F 66% 30.39 in 10.0 mi NNE 12.7 mph 18.4 mph N/A   Clear
5:55 AM 44.6 °F 39.2 °F 35.6 °F 71% 30.40 in 10.0 mi North 10.4 mph - N/A   Clear
6:15 AM 44.6 °F 38.1 °F 35.6 °F 71% 30.41 in 10.0 mi North 13.8 mph - N/A   Clear
6:35 AM 44.6 °F 38.1 °F 35.6 °F 71% 30.42 in 10.0 mi North 13.8 mph 18.4 mph N/A   Clear
6:55 AM 44.6 °F 37.8 °F 35.6 °F 71% 30.43 in 10.0 mi North 15.0 mph 21.9 mph N/A   Clear
7:15 AM 42.8 °F 35.4 °F 35.6 °F 76% 30.44 in 10.0 mi North 15.0 mph - N/A   Clear
7:35 AM 42.8 °F 35.1 °F 35.6 °F 76% 30.45 in 10.0 mi North 16.1 mph 21.9 mph N/A   Clear
7:55 AM 44.6 °F 38.4 °F 33.8 °F 66% 30.46 in 10.0 mi North 12.7 mph 21.9 mph N/A   Clear
8:15 AM 44.6 °F 37.8 °F 33.8 °F 66% 30.48 in 10.0 mi North 15.0 mph 20.7 mph N/A   Clear
8:35 AM 46.4 °F 39.8 °F 32.0 °F 57% 30.48 in 10.0 mi North 16.1 mph 21.9 mph N/A   Clear
8:55 AM 46.4 °F 38.7 °F 32.0 °F 57% 30.49 in 10.0 mi NNE 20.7 mph 26.5 mph N/A   Clear
9:15 AM 48.2 °F - 32.0 °F 54% 30.50 in 10.0 mi NNE 18.4 mph 24.2 mph N/A   Clear
9:35 AM 48.2 °F - 32.0 °F 54% 30.51 in 10.0 mi North 17.3 mph - N/A   Clear
9:55 AM 50.0 °F - 32.0 °F 50% 30.52 in 10.0 mi North 13.8 mph - N/A   Clear
10:15 AM 50.0 °F - 30.2 °F 47% 30.52 in 10.0 mi North 18.4 mph 23.0 mph N/A   Clear
10:35 AM 50.0 °F - 32.0 °F 50% 30.53 in 10.0 mi North 15.0 mph 19.6 mph N/A   Clear
10:55 AM 50.0 °F - 32.0 °F 50% 30.53 in 10.0 mi North 18.4 mph - N/A   Clear
11:15 AM 51.8 °F - 32.0 °F 47% 30.53 in 10.0 mi North 15.0 mph 19.6 mph N/A   Clear
11:35 AM 51.8 °F - 32.0 °F 47% 30.53 in 10.0 mi NNW 16.1 mph 19.6 mph N/A   Clear
11:55 AM 51.8 °F - 32.0 °F 47% 30.52 in 10.0 mi North 15.0 mph - N/A   Clear
12:15 PM 51.8 °F - 32.0 °F 47% 30.52 in 10.0 mi North 15.0 mph 23.0 mph N/A   Clear
12:35 PM 53.6 °F - 30.2 °F 41% 30.51 in 10.0 mi North 16.1 mph 21.9 mph N/A   Clear
12:55 PM 53.6 °F - 30.2 °F 41% 30.49 in 10.0 mi North 17.3 mph - N/A   Clear
1:15 PM 53.6 °F - 30.2 °F 41% 30.49 in 10.0 mi North 18.4 mph 23.0 mph N/A   Clear
1:35 PM 51.8 °F - 30.2 °F 44% 30.49 in 10.0 mi North 17.3 mph 26.5 mph N/A   Clear
1:55 PM 51.8 °F - 30.2 °F 44% 30.48 in 10.0 mi North 17.3 mph 26.5 mph N/A   Clear
2:15 PM 53.6 °F - 30.2 °F 41% 30.48 in 10.0 mi North 16.1 mph 19.6 mph N/A   Clear
2:35 PM 53.6 °F - 30.2 °F 41% 30.47 in 10.0 mi North 16.1 mph - N/A   Clear
2:55 PM 51.8 °F - 28.4 °F 41% 30.47 in 10.0 mi NNW 16.1 mph 23.0 mph N/A   Clear
3:15 PM 51.8 °F - 28.4 °F 41% 30.47 in 10.0 mi North 13.8 mph - N/A   Clear
3:35 PM 51.8 °F - 28.4 °F 41% 30.46 in 10.0 mi North 15.0 mph - N/A   Clear
3:55 PM 51.8 °F - 28.4 °F 41% 30.46 in 10.0 mi North 16.1 mph - N/A   Clear
4:15 PM 50.0 °F - 28.4 °F 43% 30.46 in 10.0 mi NNW 16.1 mph 21.9 mph N/A   Clear
4:35 PM 50.0 °F - 28.4 °F 43% 30.46 in 10.0 mi North 19.6 mph - N/A   Clear
4:55 PM 48.2 °F - 26.6 °F 43% 30.46 in 10.0 mi North 11.5 mph - N/A   Clear
5:15 PM 46.4 °F 41.1 °F 26.6 °F 46% 30.46 in 10.0 mi North 11.5 mph - N/A   Clear
5:35 PM 44.6 °F 39.2 °F 26.6 °F 49% 30.47 in 10.0 mi NNW 10.4 mph - N/A   Clear
5:55 PM 41.0 °F 35.8 °F 24.8 °F 53% 30.47 in 10.0 mi North 8.1 mph - N/A   Clear
6:15 PM 42.8 °F 38.0 °F 26.6 °F 53% 30.47 in 10.0 mi North 8.1 mph - N/A   Clear
6:35 PM 41.0 °F 35.2 °F 26.6 °F 57% 30.47 in 10.0 mi North 9.2 mph - N/A   Clear
6:55 PM 41.0 °F 35.2 °F 24.8 °F 53% 30.47 in 10.0 mi North 9.2 mph - N/A   Clear
7:15 PM 37.4 °F 31.4 °F 24.8 °F 60% 30.47 in 10.0 mi North 8.1 mph - N/A   Clear
7:35 PM 37.4 °F 33.8 °F 24.8 °F 60% 30.47 in 10.0 mi North 4.6 mph - N/A   Clear
7:55 PM 41.0 °F 37.1 °F 24.8 °F 53% 30.47 in 10.0 mi North 5.8 mph - N/A   Clear
8:15 PM 37.4 °F 32.1 °F 24.8 °F 60% 30.47 in 10.0 mi North 6.9 mph - N/A   Clear
8:35 PM 35.6 °F 29.2 °F 24.8 °F 65% 30.47 in 10.0 mi North 8.1 mph - N/A   Clear
8:55 PM 35.6 °F 29.9 °F 24.8 °F 65% 30.47 in 10.0 mi North 6.9 mph - N/A   Clear
9:15 PM 35.6 °F 29.2 °F 23.0 °F 60% 30.47 in 10.0 mi North 8.1 mph - N/A   Clear
9:35 PM 35.6 °F 30.7 °F 23.0 °F 60% 30.47 in 10.0 mi North 5.8 mph - N/A   Clear
9:55 PM 35.6 °F 30.7 °F 23.0 °F 60% 30.47 in 10.0 mi NNW 5.8 mph - N/A   Clear
10:15 PM 35.6 °F 29.9 °F 23.0 °F 60% 30.47 in 10.0 mi North 6.9 mph - N/A   Clear
10:35 PM 33.8 °F - 24.8 °F 70% 30.47 in 10.0 mi Calm Calm - N/A   Clear
10:55 PM 35.6 °F - 23.0 °F 60% 30.47 in 10.0 mi Calm Calm - N/A   Clear
11:15 PM 35.6 °F - 23.0 °F 60% 30.46 in 10.0 mi Calm Calm - N/A   Clear
11:35 PM 33.8 °F - 23.0 °F 65% 30.46 in 10.0 mi Calm Calm - N/A   Clear
11:55 PM 33.8 °F - 24.8 °F 70% 30.45 in 10.0 mi Calm Calm - N/A   Clear